Date String (YYYY-MM-DD hh:mm:ss) UTC,Instrument flags,Ambient pressure (hPa),Sample flow (lpm),Bypass flow (lpm),Sample temperature (°C),Ambient temperature (°C),ASC tube jacket temperature (°C),LED temperature (°C),Box temperature (°C),Sample RH (%),Span deviation,Mass concentration (μg/m³),Mass concentration (μg/m³),Mass concentration (μg/m³)
DateTimeUTC,F1_M11,P_M11,Q1_M11,Q2_M11,T1_M11,T2_M11,T3_M11,T4_M11,T5_M11,U1_M11,ZSPAN_M11,X0_M11,X2_M11,X1_M11
2022-05-09 05:00:00,,0807.0,5.01,0.00,28.9,28.2,00.0,38.0,30.7,20.5,0000.0,0023.30,0007.07,0003.43
2022-05-09 05:01:00,,0807.0,4.99,0.00,28.9,28.2,00.0,38.0,30.7,20.5,0000.0,0022.89,0007.09,0003.43
2022-05-09 05:02:00,,0807.0,5.00,0.00,28.9,28.1,00.0,37.9,30.7,20.6,0000.0,0023.14,0007.19,0003.43
2022-05-09 05:03:00,,0807.0,5.01,0.00,28.9,28.2,00.0,37.9,30.7,20.5,0000.0,0022.83,0007.25,0003.43
2022-05-09 05:04:00,,0807.0,5.01,0.00,28.9,28.2,00.0,37.9,30.7,20.5,0000.0,0023.05,0007.28,0003.43
2022-05-09 05:05:00,,0807.0,5.00,0.00,28.9,28.2,00.0,37.9,30.7,20.5,0000.0,0022.96,0007.24,0003.43
2022-05-09 05:06:00,,0807.1,5.00,0.00,28.9,28.1,00.0,37.9,30.7,20.6,0000.0,0022.11,0007.09,0003.41
2022-05-09 05:07:00,,0807.2,5.00,0.00,28.9,28.1,00.0,37.9,30.7,20.7,0000.0,0021.25,0007.06,0003.41
2022-05-09 05:08:00,,0807.2,5.00,0.00,28.9,28.1,00.0,37.9,30.7,20.7,0000.0,0020.63,0007.03,0003.40
2022-05-09 05:09:00,,0807.1,4.99,0.00,28.9,28.2,00.0,37.9,30.7,20.7,0000.0,0020.96,0006.94,0003.39
2022-05-09 05:10:00,,0807.1,5.01,0.00,28.9,28.2,00.0,37.9,30.7,20.8,0000.0,0020.57,0006.95,0003.38
2022-05-09 05:11:00,,0807.1,5.00,0.00,28.9,28.1,00.0,37.9,30.7,20.7,0000.0,0020.39,0006.93,0003.38
2022-05-09 05:12:00,,0807.3,5.01,0.00,28.9,28.1,00.0,37.9,30.7,20.8,0000.0,0020.67,0006.88,0003.39
2022-05-09 05:13:00,,0807.3,5.00,0.00,28.9,28.1,00.0,37.9,30.7,20.9,0000.0,0019.49,0006.81,0003.39
2022-05-09 05:14:00,,0807.2,4.99,0.00,28.9,28.2,00.0,37.9,30.7,20.9,0000.0,0019.19,0006.66,0003.38
2022-05-09 05:15:00,,0807.3,5.00,0.00,28.9,28.2,00.0,37.9,30.7,20.8,0000.0,0018.06,0006.57,0003.38
2022-05-09 05:16:00,,0807.4,5.00,0.00,28.9,28.2,00.0,37.9,30.7,20.8,0000.0,0018.39,0006.59,0003.39
2022-05-09 05:17:00,,0807.3,4.99,0.00,28.9,28.2,00.0,37.9,30.7,20.8,0000.0,0019.41,0006.67,0003.39
2022-05-09 05:18:00,,0807.3,5.01,0.00,28.9,28.2,00.0,37.9,30.7,20.7,0000.0,0019.81,0006.66,0003.40
2022-05-09 05:19:00,,0807.3,5.01,0.00,28.9,28.2,00.0,37.9,30.7,20.7,0000.0,0020.59,0006.70,0003.40
2022-05-09 05:20:00,,0807.3,5.00,0.00,28.9,28.2,00.0,37.9,30.7,20.8,0000.0,0020.16,0006.70,0003.40
2022-05-09 05:21:00,,0807.3,5.00,0.00,28.9,28.2,00.0,37.9,30.7,20.8,0000.0,0020.59,0006.63,0003.40
2022-05-09 05:22:00,,0807.4,5.00,0.00,28.9,28.2,00.0,37.9,30.7,20.8,0000.0,0020.35,0006.58,0003.41
2022-05-09 05:23:00,,0807.3,5.00,0.00,28.9,28.2,00.0,37.9,30.7,20.7,0000.0,0019.66,0006.55,0003.41
2022-05-09 05:24:00,,0807.4,5.01,0.00,28.9,28.1,00.0,37.9,30.7,20.7,0000.0,0019.95,0006.57,0003.42
2022-05-09 05:25:00,,0807.4,4.99,0.00,28.8,28.1,00.0,37.9,30.6,20.7,0000.0,0019.26,0006.55,0003.43
2022-05-09 05:26:00,,0807.5,4.99,0.00,28.8,28.1,00.0,37.9,30.6,20.8,0000.0,0019.23,0006.55,0003.45
2022-05-09 05:27:00,,0807.5,5.00,0.00,28.8,28.1,00.0,37.9,30.6,20.8,0000.0,0018.84,0006.54,0003.44
2022-05-09 05:28:00,,0807.5,5.00,0.00,28.8,28.1,00.0,37.9,30.7,20.9,0000.0,0018.27,0006.52,0003.46
2022-05-09 05:29:00,,0807.5,5.01,0.00,28.8,28.1,00.0,37.9,30.7,20.9,0000.0,0018.31,0006.58,0003.47
2022-05-09 05:30:00,,0807.4,4.99,0.00,28.8,28.1,00.0,37.9,30.7,20.9,0000.0,0018.32,0006.61,0003.49
2022-05-09 05:31:00,,0807.4,5.01,0.00,28.9,28.2,00.0,37.9,30.7,20.9,0000.0,0018.41,0006.58,0003.49
2022-05-09 05:32:00,,0807.4,5.00,0.00,28.9,28.2,00.0,37.9,30.7,20.9,0000.0,0017.74,0006.49,0003.48
2022-05-09 05:33:00,,0807.5,5.01,0.00,28.9,28.2,00.0,37.9,30.7,20.9,0000.0,0017.69,0006.51,0003.47
2022-05-09 05:34:00,,0807.5,5.00,0.00,28.9,28.2,00.0,37.9,30.7,20.9,0000.0,0017.83,0006.44,0003.46
2022-05-09 05:35:00,,0807.6,4.99,0.00,28.9,28.2,00.0,37.9,30.7,20.8,0000.0,0017.50,0006.43,0003.46
2022-05-09 05:36:00,,0807.6,4.99,0.00,28.9,28.2,00.0,37.9,30.7,20.8,0000.0,0017.45,0006.48,0003.46
2022-05-09 05:37:00,,0807.5,5.00,0.00,28.9,28.2,00.0,37.9,30.7,20.9,0000.0,0017.28,0006.44,0003.44
2022-05-09 05:38:00,,0807.5,5.00,0.00,28.9,28.2,00.0,37.9,30.7,20.9,0000.0,0017.02,0006.39,0003.43
2022-05-09 05:39:00,,0807.5,5.00,0.00,28.9,28.2,00.0,37.9,30.7,20.9,0000.0,0016.66,0006.31,0003.42
2022-05-09 05:40:00,,0807.5,5.00,0.00,28.9,28.2,00.0,37.9,30.7,20.9,0000.0,0017.36,0006.31,0003.41
2022-05-09 05:41:00,,0807.6,5.01,0.00,28.9,28.2,00.0,37.9,30.7,20.9,0000.0,0016.72,0006.30,0003.39
2022-05-09 05:42:00,,0807.6,5.01,0.00,28.9,28.2,00.0,37.9,30.7,20.9,0000.0,0017.19,0006.35,0003.40
2022-05-09 05:43:00,,0807.7,5.00,0.00,28.9,28.2,00.0,37.9,30.7,20.9,0000.0,0017.40,0006.50,0003.41
2022-05-09 05:44:00,,0807.6,5.00,0.00,28.9,28.1,00.0,37.9,30.7,20.9,0000.0,0017.89,0006.52,0003.40
2022-05-09 05:45:00,,0807.6,5.01,0.00,28.9,28.1,00.0,37.8,30.7,20.9,0000.0,0018.30,0006.55,0003.39
2022-05-09 05:46:00,,0807.6,5.00,0.00,28.9,28.1,00.0,37.9,30.7,20.9,0000.0,0018.60,0006.51,0003.38
2022-05-09 05:47:00,,0807.6,4.99,0.00,28.9,28.2,00.0,37.9,30.7,20.8,0000.0,0018.71,0006.49,0003.38
2022-05-09 05:48:00,,0807.6,5.01,0.00,28.9,28.2,00.0,37.8,30.7,20.8,0000.0,0018.62,0006.49,0003.37
2022-05-09 05:49:00,,0807.7,5.00,0.00,28.9,28.1,00.0,37.8,30.7,20.9,0000.0,0019.14,0006.51,0003.38
2022-05-09 05:50:00,,0807.7,5.00,0.00,28.9,28.2,00.0,37.9,30.7,20.8,0000.0,0019.22,0006.56,0003.38
2022-05-09 05:51:00,,0807.7,5.00,0.00,28.9,28.2,00.0,37.9,30.7,20.8,0000.0,0018.41,0006.57,0003.38
2022-05-09 05:52:00,,0807.7,4.99,0.00,28.9,28.2,00.0,37.9,30.7,20.8,0000.0,0018.29,0006.58,0003.39
2022-05-09 05:53:00,,0807.7,4.99,0.00,28.9,28.1,00.0,37.9,30.7,20.8,0000.0,0017.79,0006.57,0003.39
2022-05-09 05:54:00,,0807.8,5.01,0.00,28.9,28.1,00.0,37.8,30.7,20.9,0000.0,0017.89,0006.56,0003.39
2022-05-09 05:55:00,,0807.9,5.00,0.00,28.9,28.1,00.0,37.8,30.7,20.9,0000.0,0017.65,0006.51,0003.40
2022-05-09 05:56:00,,0807.9,4.99,0.00,28.9,28.1,00.0,37.9,30.7,20.8,0000.0,0016.98,0006.51,0003.42
2022-05-09 05:57:00,,0807.9,5.00,0.00,28.9,28.2,00.0,37.9,30.7,20.8,0000.0,0016.53,0006.48,0003.42
2022-05-09 05:58:00,,0807.9,5.00,0.00,28.9,28.2,00.0,37.9,30.7,20.8,0000.0,0016.57,0006.51,0003.42
2022-05-09 05:59:00,,0808.0,5.01,0.00,28.9,28.2,00.0,37.9,30.7,20.8,0000.0,0016.67,0006.57,0003.42
